Temperature
14 14 13 13 13 13 13 13 13 13 13 13 13 14 14 14 14 14 14 14 15 15 15 16 16 16 16 16 17 17 17 17 17 17 17 17 18 18 18 18 18 18 18
14 14 13 13 13 12 12 12 13 13 13 13 13 13 13 13 13 14 14 14 14 14 15 15 15 16 16 16 16 16 17 17 16 16 17 17 17 17 18 18 18 18 18
14 13 13 13 12 12 12 12 12 12 12 12 12 12 13 13 13 13 13 14 14 14 14 15 15 15 15 16 16 16 16 16 16 16 16 17 17 17 18 18 18 18 18
13 13 13 13 12 12 12 12 12 12 12 12 12 12 12 12 12 12 13 13 14 14 14 14 15 15 15 15 15 16 16 16 16 16 16 16 16 17 17 17 18 18 18
13 13 13 12 12 12 12 12 12 12 12 12 12 12 12 12 12 12 13 13 13 13 14 14 14 14 15 15 15 15 15 15 16 16 16 16 16 16 17 17 17 18 18
14 13 13 13 12 12 12 12 12 12 12 12 12 12 12 12 12 12 12 13 13 13 13 14 14 14 14 14 15 15 15 15 15 15 15 16 16 16 16 17 17 17 18
14 13 13 13 13 12 12 12 12 12 12 12 12 11 11 11 11 11 12 12 13 13 13 14 14 14 14 14 14 15 15 15 15 15 15 15 15 16 16 16 16 17 17
14 13 13 13 12 12 12 12 12 12 12 11 11 11 11 11 11 11 12 12 12 12 13 13 13 14 14 14 14 14 15 15 15 15 15 15 15 15 15 15 16 16 16
14 14 13 13 13 12 12 12 12 12 11 11 11 11 11 11 11 11 11 12 12 12 13 13 13 13 14 14 14 14 14 14 14 14 15 15 15 15 15 15 15 15 15
14 14 13 13 13 12 12 12 12 11 11 11 11 11 11 11 11 11 11 12 12 12 12 13 13 13 13 13 13 14 14 14 14 14 14 14 14 14 14 14 14 15 15
14 14 14 13 13 13 12 12 12 12 11 11 11 11 11 11 11 11 11 11 11 12 12 12 12 13 13 13 13 13 13 14 14 14 14 14 14 14 14 14 14 14 14
14 14 14 14 13 13 12 12 12 11 11 11 11 11 11 11 11 11 11 11 11 11 12 12 12 12 12 13 13 13 13 13 13 13 13 14 14 14 14 14 14 14 14
15 14 14 14 13 13 13 12 12 11 11 11 11 11 10 10 10 11 11 11 11 11 11 11 12 12 12 12 12 12 13 13 13 13 13 13 13 14 14 14 13 14 14
15 15 14 14 14 13 13 12 12 11 11 11 11 11 10 10 10 10 10 10 10 11 11 11 11 11 12 12 12 12 12 12 12 13 13 13 13 13 13 13 13 13 13
15 15 15 14 14 13 13 13 12 11 11 11 11 10 10 10 10 10 10 10 10 10 10 11 11 11 11 11 11 12 12 12 12 12 12 12 13 13 13 13 13 13 13
15 15 15 14 14 14 13 13 12 12 11 11 10 10 10 10 10 10 10 10 10 10 10 10 10 11 11 11 11 11 12 12 12 12 12 12 12 13 13 13 13 13 13
16 15 15 15 14 14 13 13 12 12 11 11 11 10 10 10 10 10 10 10 10 10 10 10 10 10 11 11 11 11 11 11 12 12 12 12 12 12 12 13 13 13 13
16 15 15 15 14 14 14 13 12 12 11 11 11 10 10 10 10 10 10 10 10 10 10 10 10 10 10 10 10 11 11 11 11 11 11 12 12 12 12 12 12 13 13
16 16 15 15 14 14 14 13 13 12 12 11 11 11 10 10 10 10 10 10 10 10 10 10 10 10 10 10 10 10 11 11 11 11 11 11 12 12 12 12 12 12 12
16 16 15 15 15 14 14 13 13 12 12 11 11 11 10 10 10 10 10 10 10 10 10 10 10 10 10 10 10 10 10 11 11 11 11 11 11 12 12 12 12 12 12
17 16 15 15 15 14 14 14 13 13 12 12 11 11 11 10 10 10 10 10 10 10 10 10 10 10 10 10 10 10 10 11 11 11 11 11 11 11 11 12 12 12 12
17 16 16 15 15 15 14 14 13 13 12 12 12 11 11 11 11 10 10 10 10 10 10 10 10 10 10 10 10 10 10 10 11 11 11 11 11 11 11 11 11 12 12
17 16 16 15 15 15 15 14 14 13 13 12 12 12 11 11 11 11 11 10 10 10 10 10 10 10 10 10 10 10 10 10 10 10 11 11 11 11 11 11 11 11 11
17 17 16 16 16 15 15 15 14 14 13 13 12 12 12 11 11 11 11 11 11 11 11 11 11 10 10 10 10 10 10 10 10 11 11 11 11 11 11 11 11 11 11
18 17 16 16 16 16 16 15 15 14 14 13 13 13 12 12 12 11 11 11 11 11 11 11 11 11 11 11 10 10 10 10 10 10 11 11 11 11 11 11 11 11 11
18 17 17 17 16 16 16 16 15 15 14 14 14 13 13 12 12 12 11 11 11 11 11 11 11 11 11 11 11 10 11 11 11 11 11 11 11 11 11 11 11 11 11
Wind_Speed
6 7 8 8 8 8 9 9 9 9 7 5 5 5 5 5 4 4 5 6 6 5 4 4 4 4 5 6 7 5 5 4 3 2 1 2 1 2 3 4 5 6 9
8 8 8 8 8 8 9 9 9 9 8 6 5 4 5 4 4 4 5 6 6 5 4 4 4 4 5 6 7 6 4 4 5 4 2 1 2 2 3 3 5 6 6
7 8 9 8 8 9 9 9 9 9 9 8 6 5 4 3 3 4 4 4 6 5 4 4 4 4 5 6 7 7 8 6 5 5 4 4 5 2 2 3 4 5 5
6 7 8 9 9 9 9 9 9 9 8 7 6 7 5 4 4 4 4 5 5 5 4 4 4 5 4 5 6 7 6 6 5 4 4 3 3 4 2 2 2 4 6
6 7 8 8 8 8 8 8 9 9 8 8 7 7 6 5 5 5 5 5 5 4 4 4 4 4 4 5 6 6 7 6 6 5 4 3 2 2 3 3 2 2 3
7 7 7 7 7 7 8 8 9 9 9 9 8 7 7 7 7 6 6 6 5 4 5 4 4 4 4 5 6 6 7 7 7 6 5 5 4 4 4 3 3 3 3
6 7 8 8 8 9 9 8 9 9 9 9 8 8 7 7 6 6 5 6 5 4 6 5 4 4 4 5 5 5 6 7 8 8 6 6 5 4 4 4 3 2 1
6 7 7 7 7 8 8 8 8 8 9 9 9 8 8 5 5 5 5 5 4 5 5 6 5 4 3 3 3 4 5 5 7 8 7 5 6 5 5 5 5 3 2
7 7 7 6 6 7 7 7 7 8 8 8 8 8 9 8 7 6 6 5 5 5 6 6 5 5 4 3 2 3 4 4 5 6 6 5 5 5 5 4 4 5 5
6 7 6 6 6 6 6 6 6 6 6 7 7 7 8 8 8 7 8 8 8 7 8 7 7 6 5 4 2 1 2 3 4 4 5 5 4 5 4 4 4 4 4
7 7 6 5 5 5 5 5 6 5 6 7 7 8 8 8 8 7 8 8 7 8 8 8 7 7 7 6 4 3 1 2 3 3 5 5 5 5 4 4 4 4 4
6 6 6 5 5 5 5 5 5 5 5 6 6 7 7 7 8 8 8 8 8 8 8 7 7 7 7 7 6 4 3 1 1 2 3 4 4 5 4 4 4 4 4
6 5 5 5 5 5 5 4 4 4 5 5 6 7 7 8 8 8 8 8 8 8 8 8 8 8 7 7 6 5 5 4 3 2 2 3 5 4 4 4 4 4 4
6 6 5 5 5 4 4 4 4 3 4 4 5 6 7 7 7 7 7 8 8 8 8 8 8 8 7 6 6 5 5 5 4 3 2 2 3 4 4 4 4 4 5
7 7 6 5 5 4 3 3 3 3 3 4 5 5 6 6 6 7 7 8 8 8 8 8 8 8 7 6 6 5 5 5 4 4 3 2 2 3 3 4 4 5 4
8 7 7 6 5 5 4 3 2 2 2 3 4 5 6 6 7 7 7 7 8 8 8 8 8 9 7 10 9 7 5 4 4 4 4 3 3 2 2 4 5 6 6
8 8 7 6 6 5 4 4 3 1 1 2 4 5 5 6 6 6 7 7 7 7 7 8 8 8 9 11 11 10 6 6 5 4 3 3 3 3 3 3 4 3 4
8 8 6 5 5 4 3 3 2 1 1 3 4 4 5 5 5 6 6 6 5 6 6 7 8 8 10 13 11 9 6 5 5 5 4 3 3 3 3 4 5 4 3
8 7 6 5 4 4 4 3 2 1 2 3 4 4 4 4 5 5 6 4 4 5 5 5 7 8 9 13 11 9 5 5 5 5 5 3 3 4 5 6 5 5 4
6 6 5 4 4 4 4 4 4 3 4 5 4 4 3 3 4 4 4 3 3 4 4 5 6 7 8 12 12 9 4 5 4 5 5 5 4 5 5 4 5 5 3
7 6 6 5 6 5 6 5 5 6 6 4 3 3 3 3 3 3 2 3 3 4 5 5 5 6 8 10 12 11 5 4 4 4 4 4 6 6 6 5 4 5 5
7 7 6 6 5 6 7 7 7 7 5 4 4 4 3 3 1 2 2 2 3 3 4 5 5 5 6 8 9 11 9 6 3 3 4 4 6 6 6 5 6 8 7
7 6 7 7 5 6 8 9 8 6 5 4 5 4 3 2 2 1 2 2 2 2 3 3 4 5 5 6 10 10 9 8 4 3 4 5 7 7 5 6 8 6 5
7 6 7 7 7 7 8 10 7 6 6 6 6 5 4 4 3 2 2 2 2 2 2 2 3 4 4 4 5 6 5 6 4 4 5 6 8 7 6 6 5 4 4
6 6 8 9 10 8 9 9 8 7 7 7 6 5 5 5 4 4 4 4 4 5 4 3 2 2 4 5 7 5 3 3 2 2 3 3 3 3 4 4 4 4 4
6 7 8 9 10 8 9 9 8 9 8 7 7 6 5 5 4 4 4 7 8 8 9 8 6 5 6 7 7 7 6 4 1 3 2 2 2 1 2 2 2 2 3
Wind_Direction
317 328 329 330 333 337 338 334 335 334 337 334 331 322 315 309 304 296 297 297 290 280 255 251 241 224 222 221 210 195 197 199 165 159 261 311 279 221 217 204 195 200 204
328 331 331 335 336 332 333 334 336 333 335 329 313 290 288 292 288 297 307 303 297 287 267 241 238 228 226 225 215 196 185 192 177 168 158 220 286 271 231 204 206 207 198
318 322 326 329 332 333 332 336 331 331 331 333 327 322 318 313 321 323 317 310 307 294 276 260 245 232 223 225 219 208 193 193 188 183 169 171 208 226 254 218 208 197 196
312 315 321 326 328 328 329 333 333 333 333 337 341 342 339 325 310 311 306 310 313 310 297 277 253 238 229 228 225 216 207 189 187 190 201 183 158 167 201 263 217 200 203
302 309 314 316 319 325 331 335 337 339 339 342 344 342 336 322 317 319 322 325 324 315 312 296 271 251 238 232 226 218 208 200 192 184 181 180 174 176 167 193 205 208 213
301 308 313 316 320 327 334 338 342 340 343 346 347 346 339 334 334 337 337 333 328 322 322 310 289 269 252 238 230 221 210 209 203 197 187 174 173 185 172 172 182 198 209
299 306 313 319 324 328 332 336 342 340 342 348 350 346 342 338 338 336 334 334 334 330 330 327 310 293 274 252 230 221 217 211 206 204 202 193 189 169 163 163 163 173 183
294 298 300 308 316 320 328 336 340 339 344 350 349 349 350 348 344 342 343 338 332 327 330 332 327 317 308 284 242 227 219 210 209 208 199 193 197 186 177 171 162 159 177
288 294 302 308 311 319 325 330 337 342 346 349 350 354 359 1 357 354 353 350 346 344 346 342 343 340 338 327 269 232 226 208 206 206 200 196 194 187 184 175 169 167 185
287 295 302 306 308 312 319 333 341 342 344 350 353 359 359 1 2 5 6 1 355 354 354 356 358 358 353 343 327 270 232 207 203 196 190 193 184 178 182 182 179 177 178
279 285 294 303 310 319 327 336 342 347 349 351 351 356 355 357 3 7 2 358 357 358 -0 360 2 5 5 359 357 350 291 208 197 191 188 190 180 174 178 182 178 180 172
273 281 289 305 317 323 327 331 337 342 342 346 352 355 355 358 4 1 356 356 359 360 0 359 4 6 6 5 9 10 17 64 153 176 178 178 168 172 169 175 180 182 180
278 288 293 298 302 310 316 323 328 330 337 351 357 358 358 0 359 355 354 357 359 359 1 4 6 3 2 4 7 15 29 41 55 82 128 149 153 166 156 162 178 182 179
269 276 280 281 286 293 298 310 317 326 339 356 1 358 353 352 351 352 356 359 359 1 1 1 0 358 359 4 11 23 36 42 45 48 70 110 146 163 161 174 181 173 171
261 262 264 271 277 282 286 297 307 323 343 356 356 347 343 350 355 358 357 358 3 4 359 2 2 0 2 9 16 24 37 40 41 33 31 61 113 160 171 172 177 173 170
250 255 261 264 263 259 259 269 280 299 329 344 341 340 349 356 358 354 355 0 2 0 5 6 4 5 7 11 26 30 33 35 43 38 25 36 49 69 124 151 167 175 174
243 244 248 251 252 248 236 234 242 270 316 324 332 339 346 352 352 354 359 360 356 0 4 4 5 4 360 20 31 36 39 38 38 35 33 45 42 56 79 94 110 126 155
234 236 237 244 247 238 220 208 196 226 286 308 321 329 341 344 349 358 359 354 353 359 1 3 2 2 6 19 29 39 40 40 34 27 29 44 35 51 94 98 88 74 66
220 222 223 223 226 224 205 179 191 229 269 287 298 310 325 334 345 352 348 348 353 1 3 360 5 6 2 15 29 38 31 37 29 22 22 26 42 61 90 101 102 88 67
210 212 209 206 216 218 178 179 209 232 253 263 277 294 306 317 327 333 334 338 347 350 359 6 5 5 0 8 23 29 28 31 23 18 17 25 48 65 81 101 112 107 89
204 199 193 206 220 197 173 196 216 234 243 252 271 290 297 296 301 327 337 339 351 0 5 3 359 3 2 4 16 22 24 18 22 23 12 12 41 65 74 82 93 112 110
200 191 195 220 223 189 182 207 229 236 235 238 257 274 286 295 317 337 340 352 359 4 360 356 352 353 355 360 8 20 25 23 29 15 358 8 45 65 76 83 99 103 99
206 196 200 222 227 203 194 213 234 223 216 229 247 259 273 277 280 283 309 334 348 347 341 348 344 337 342 352 7 15 19 21 25 6 17 38 51 56 65 82 93 93 94
213 203 201 220 234 220 212 222 230 207 205 227 243 248 253 262 260 250 243 251 272 292 308 317 322 325 331 343 350 352 358 9 19 15 21 43 52 56 61 67 66 69 89
217 204 208 223 236 229 224 227 219 199 209 227 237 241 240 244 251 247 235 231 232 215 227 245 252 282 309 307 325 336 334 336 342 27 34 33 34 45 49 54 59 65 80
223 219 223 231 240 234 233 231 211 198 206 224 233 231 231 235 235 246 267 243 235 244 238 230 224 237 252 284 314 331 335 335 59 81 69 57 49 61 72 87 76 69 88
Height
1556 1553 1550 1546 1542 1539 1535 1531 1528 1525 1521 1518 1515 1513 1511 1510 1509 1508 1508 1508 1508 1508 1509 1510 1511 1512 1514 1516 1518 1520 1522 1525 1528 1531 1532 1535 1536 1538 1540 1543 1545 1547 1549
1554 1552 1549 1545 1542 1538 1534 1530 1527 1523 1520 1517 1514 1511 1508 1507 1506 1505 1504 1504 1504 1504 1505 1505 1507 1508 1509 1511 1513 1515 1517 1519 1522 1525 1528 1530 1533 1533 1536 1538 1541 1543 1545
1554 1551 1548 1545 1541 1537 1533 1530 1526 1522 1519 1516 1512 1509 1507 1505 1503 1502 1501 1501 1501 1501 1501 1501 1502 1503 1505 1506 1507 1509 1512 1514 1517 1520 1523 1525 1526 1528 1531 1533 1536 1539 1541
1553 1551 1548 1544 1541 1537 1534 1530 1526 1522 1519 1515 1511 1508 1505 1503 1501 1500 1499 1498 1498 1497 1497 1497 1498 1499 1500 1501 1502 1504 1506 1509 1511 1514 1517 1520 1521 1524 1525 1528 1531 1534 1536
1553 1550 1548 1545 1541 1538 1534 1530 1526 1522 1519 1515 1511 1508 1505 1503 1500 1499 1497 1496 1495 1495 1494 1494 1494 1494 1495 1496 1498 1499 1501 1503 1505 1508 1510 1513 1516 1519 1521 1523 1525 1528 1531
1552 1550 1547 1545 1541 1538 1534 1530 1526 1523 1519 1515 1511 1508 1505 1502 1499 1497 1496 1494 1493 1492 1492 1491 1490 1490 1491 1492 1493 1494 1496 1498 1500 1502 1505 1507 1510 1513 1516 1519 1521 1523 1526
1551 1549 1547 1544 1541 1538 1534 1531 1527 1523 1519 1515 1512 1508 1505 1502 1498 1496 1495 1493 1492 1491 1489 1488 1487 1487 1487 1487 1488 1489 1491 1493 1495 1497 1499 1502 1505 1508 1511 1514 1517 1519 1522
1550 1548 1546 1544 1541 1538 1535 1531 1527 1524 1520 1516 1512 1509 1505 1502 1499 1497 1495 1493 1491 1490 1488 1486 1485 1484 1484 1484 1484 1485 1486 1488 1490 1492 1494 1497 1499 1502 1505 1509 1512 1515 1517
1549 1548 1546 1544 1541 1538 1535 1532 1528 1525 1521 1517 1513 1510 1506 1503 1500 1498 1496 1493 1491 1489 1487 1485 1484 1483 1482 1481 1481 1481 1482 1484 1485 1487 1489 1492 1494 1497 1500 1503 1507 1511 1512
1548 1547 1545 1543 1541 1538 1536 1532 1529 1526 1522 1519 1515 1511 1508 1504 1501 1499 1496 1494 1491 1489 1487 1485 1483 1481 1480 1480 1479 1479 1479 1480 1482 1484 1486 1488 1490 1492 1495 1498 1501 1504 1508
1546 1545 1544 1543 1541 1538 1536 1533 1530 1527 1523 1520 1516 1513 1509 1506 1503 1500 1497 1495 1492 1489 1487 1484 1483 1481 1480 1478 1477 1477 1477 1478 1479 1481 1482 1484 1487 1489 1491 1494 1496 1499 1503
1545 1544 1543 1542 1540 1538 1535 1533 1530 1527 1524 1521 1518 1514 1511 1508 1505 1501 1499 1496 1493 1490 1488 1485 1483 1482 1480 1478 1477 1475 1475 1476 1477 1478 1480 1482 1484 1486 1488 1491 1493 1495 1498
1543 1543 1542 1541 1539 1537 1535 1533 1530 1528 1525 1522 1519 1515 1512 1509 1506 1503 1500 1497 1495 1492 1489 1487 1484 1482 1481 1479 1478 1476 1475 1475 1476 1477 1478 1480 1482 1484 1485 1488 1490 1492 1495
1541 1541 1540 1539 1538 1537 1535 1533 1530 1528 1525 1523 1519 1516 1513 1510 1507 1504 1502 1499 1496 1494 1491 1488 1486 1484 1482 1481 1480 1478 1477 1476 1476 1477 1478 1479 1481 1482 1484 1486 1488 1490 1492
1539 1539 1539 1538 1537 1536 1534 1532 1530 1528 1526 1523 1520 1517 1514 1511 1509 1506 1503 1501 1498 1495 1493 1490 1488 1486 1484 1482 1481 1480 1479 1478 1477 1478 1478 1479 1480 1482 1483 1485 1486 1488 1490
1537 1537 1537 1537 1536 1535 1533 1532 1530 1528 1526 1523 1521 1518 1515 1513 1510 1507 1505 1502 1500 1497 1495 1492 1490 1488 1486 1484 1483 1481 1480 1480 1479 1479 1479 1479 1480 1481 1483 1484 1486 1487 1489
1535 1535 1536 1535 1535 1534 1533 1531 1530 1528 1526 1524 1522 1519 1516 1514 1511 1509 1506 1504 1501 1499 1497 1494 1492 1489 1488 1486 1485 1483 1482 1481 1481 1480 1480 1480 1481 1482 1483 1484 1485 1486 1488
1533 1534 1534 1534 1534 1533 1532 1531 1529 1528 1526 1524 1522 1520 1517 1515 1513 1510 1508 1505 1503 1501 1498 1496 1494 1492 1489 1488 1486 1485 1484 1483 1482 1482 1481 1481 1481 1482 1483 1484 1485 1486 1487
1531 1532 1533 1533 1532 1532 1531 1530 1529 1527 1526 1524 1523 1520 1518 1516 1514 1511 1509 1507 1504 1502 1500 1498 1496 1493 1491 1490 1488 1487 1486 1485 1483 1483 1482 1482 1483 1483 1484 1484 1485 1486 1487
1529 1530 1531 1531 1531 1531 1530 1529 1528 1527 1526 1524 1523 1521 1519 1517 1515 1512 1510 1508 1506 1504 1501 1499 1497 1495 1493 1492 1490 1489 1488 1487 1485 1484 1484 1484 1484 1484 1485 1486 1487 1487 1488
1527 1528 1529 1529 1530 1529 1529 1528 1527 1526 1525 1524 1523 1521 1519 1517 1515 1513 1511 1509 1507 1505 1503 1501 1499 1497 1495 1494 1492 1491 1490 1489 1487 1486 1486 1485 1485 1486 1486 1487 1488 1489 1490
1525 1526 1527 1527 1528 1528 1527 1527 1526 1525 1524 1523 1522 1521 1520 1518 1516 1514 1512 1510 1508 1506 1504 1502 1500 1498 1497 1495 1494 1493 1491 1490 1490 1489 1488 1488 1488 1488 1488 1489 1490 1491 1492
1523 1524 1524 1525 1526 1526 1526 1525 1525 1524 1523 1522 1521 1520 1519 1518 1516 1514 1512 1510 1508 1506 1504 1503 1501 1499 1498 1497 1495 1494 1493 1492 1491 1491 1490 1490 1490 1490 1491 1491 1492 1493 1494
1521 1522 1522 1523 1523 1523 1523 1523 1523 1522 1522 1521 1520 1519 1518 1517 1515 1514 1512 1510 1508 1507 1505 1503 1502 1500 1499 1498 1497 1495 1494 1494 1493 1492 1492 1492 1492 1492 1493 1493 1494 1494 1495
1519 1519 1519 1520 1520 1521 1521 1521 1521 1520 1519 1519 1518 1517 1516 1515 1514 1513 1512 1510 1508 1507 1505 1503 1502 1500 1499 1499 1497 1496 1496 1495 1494 1494 1494 1493 1493 1494 1494 1495 1495 1496 1497
1516 1516 1516 1517 1517 1518 1518 1518 1518 1517 1516 1516 1515 1515 1514 1513 1512 1511 1510 1509 1507 1506 1504 1503 1502 1500 1499 1498 1497 1497 1496 1496 1495 1495 1494 1494 1494 1495 1495 1496 1496 1497 1498